1519297201.16,4856,11.5,72742.0,1.07,-30.89,-30.77,0,*45
1519297202.44,4857,11.5,72738.8,1.07,-30.61,-30.61,0,*45
1519297203.64,4858,11.5,72736.8,1.05,-30.45,-30.27,0,*4C
1519297204.9,4859,11.5,72742.3,1.07,-29.89,-29.83,0,*41
1519297206.13,4860,11.5,72740.0,1.07,-30.27,-30.23,0,*45
1519297207.38,4861,11.5,72740.3,1.07,-30.39,-30.23,0,*4B
1519297208.63,4862,11.5,72742.0,1.07,-30.39,-30.27,0,*4C
1519297209.88,4863,11.5,72738.5,1.07,-30.23,-30.17,0,*45
1519297211.11,4864,11.5,72742.0,1.09,-29.83,-29.83,0,*4B
1519297212.33,4865,11.5,72738.8,1.09,-30.23,-30.11,0,*4B
1519297213.55,4866,11.5,72736.8,1.09,-30.23,-30.11,0,*48
1519297214.78,4867,11.5,72740.8,1.11,-29.89,-29.79,0,*4E
1519297216.02,4868,11.5,72740.3,1.09,-30.01,-29.95,0,*42
1519297217.22,4869,11.5,72742.5,1.11,-30.11,-29.95,0,*4B
1519297218.46,4870,11.5,72740.5,1.11,-29.95,-29.89,0,*4A
1519297219.68,4871,11.5,72742.5,1.11,-30.05,-29.95,0,*47
1519297220.91,4872,11.5,72738.5,1.11,-30.27,-30.17,0,*46
1519297222.16,4873,11.5,72740.8,1.13,-30.05,-29.83,0,*40
1519297223.4,4874,11.5,72740.0,1.13,-30.27,-30.27,0,*41
1519297224.6,4875,11.5,72738.8,1.15,-30.45,-30.45,0,*46
1519297225.87,4876,11.5,72740.3,1.13,-30.95,-30.95,0,*43
1519297227.13,4877,11.5,72742.0,1.13,-30.17,-29.95,0,*40
1519297228.38,4878,11.5,72740.3,1.15,-30.01,-29.89,0,*43
1519297229.59,4879,11.5,72742.0,1.15,-30.27,-30.23,0,*4E
1519297230.86,4880,11.5,72742.5,1.17,-30.61,-30.55,0,*49
1519297232.06,4881,11.5,72738.8,1.15,-30.11,-30.11,0,*4D
1519297233.26,4882,11.5,72740.3,1.15,-30.23,-30.11,0,*4F
1519297234.49,4883,11.5,72740.8,1.21,-29.83,-29.67,0,*42
1519297235.71,4884,11.5,72740.0,1.21,-29.95,-29.83,0,*48
1519297236.96,4885,11.5,72742.8,1.21,-30.23,-30.05,0,*4A
1519297238.2,4886,11.5,72740.0,1.17,-30.23,-30.05,0,*4C
1519297239.42,4887,11.5,72740.5,1.21,-30.33,-30.23,0,*4D
1519297240.66,4888,11.5,72742.3,1.21,-30.01,-29.95,0,*46
1519297241.92,4889,11.5,72742.5,1.23,-30.17,-30.01,0,*47
1519297243.17,4890,11.5,72740.0,1.23,-30.17,-30.17,0,*48
1519297244.42,4891,11.5,72738.5,1.21,-30.01,-29.83,0,*49
1519297245.67,4892,11.5,72738.3,1.23,-29.73,-29.73,0,*4A
1519297246.86,4893,11.5,72740.3,1.23,-30.11,-30.11,0,*4B
1519297248.09,4894,11.5,72738.8,1.23,-30.11,-30.01,0,*4D
1519297249.31,4895,11.5,72742.5,1.25,-29.79,-29.79,0,*4B
1519297250.54,4896,11.5,72740.0,1.25,-29.57,-29.57,0,*48
1519297251.82,4897,11.5,72742.5,1.25,-29.89,-29.89,0,*49
1519297253.07,4898,11.5,72738.5,1.25,-30.11,-30.17,0,*40
1519297254.3,4899,11.5,72740.8,1.27,-29.67,-29.51,0,*40
1519297255.53,4900,11.5,72744.5,1.27,-29.83,-29.89,0,*4E
1519297256.75,4901,11.5,72738.8,1.27,-30.11,-30.05,0,*40
1519297257.99,4902,11.5,72740.0,1.29,-30.11,-30.05,0,*4D
1519297259.21,4903,11.5,72740.3,1.27,-30.05,-29.95,0,*46
1519297260.45,4904,11.5,72742.3,1.29,-30.23,-30.39,0,*45
1519297261.73,4905,11.5,72742.0,1.29,-30.73,-30.73,0,*4F
1519297263.01,4906,11.5,72744.3,1.29,-30.73,-30.77,0,*48
1519297264.29,4907,11.5,72740.8,1.29,-30.89,-30.77,0,*4C
1519297265.53,4908,11.5,72742.3,1.27,-30.39,-30.55,0,*46
1519297266.77,4909,11.5,72744.3,1.29,-30.55,-30.45,0,*42
1519297268.06,4910,11.5,72738.8,1.29,-30.89,-30.77,0,*4A
1519297269.25,4911,11.5,72742.5,1.27,-30.45,-30.45,0,*44
1519297270.53,4912,11.5,72742.3,1.29,-30.89,-30.89,0,*49
1519297271.81,4913,11.5,72742.8,1.29,-30.73,-30.77,0,*4C
1519297273.06,4914,11.5,72742.8,1.27,-30.89,-30.73,0,*44
1519297274.35,4915,11.5,72742.8,1.29,-30.89,-30.77,0,*4F
1519297275.6,4916,11.5,72742.8,1.29,-31.11,-31.05,0,*48
1519297276.85,4917,11.5,72742.8,1.27,-31.11,-31.11,0,*42
1519297278.13,4918,11.5,72740.3,1.29,-30.77,-30.77,0,*43
1519297279.38,4919,11.5,72740.5,1.27,-31.51,-31.51,0,*4C
1519297280.64,4920,11.5,72740.8,1.27,-30.77,-30.77,0,*46
1519297281.89,4921,11.5,72742.3,1.27,-30.89,-30.89,0,*47
1519297283.15,4922,11.5,72740.8,1.27,-30.77,-30.77,0,*44
1519297284.37,4923,11.5,72738.5,1.27,-31.05,-31.11,0,*40
1519297285.6,4924,11.5,72738.8,1.27,-30.95,-31.05,0,*4A
1519297286.82,4925,11.5,72742.5,1.27,-31.05,-30.95,0,*4B
1519297288.04,4926,11.5,72740.8,1.27,-31.11,-31.29,0,*4B
1519297289.29,4927,11.5,72744.0,1.27,-31.51,-31.61,0,*42
1519297290.49,4928,11.5,72740.5,1.27,-31.17,-31.17,0,*4E
1519297291.75,4929,11.5,72740.8,1.25,-31.23,-31.17,0,*4A
1519297293.0,4930,11.5,72742.8,1.23,-31.51,-31.39,0,*4D
1519297294.24,4931,11.5,72740.3,1.23,-31.51,-31.57,0,*44
1519297295.51,4932,11.5,72742.5,1.25,-31.39,-31.51,0,*49
1519297296.73,4933,11.5,72742.5,1.25,-31.33,-31.33,0,*46
1519297297.98,4934,11.5,72742.5,1.23,-31.39,-31.51,0,*49
1519297299.21,4935,11.5,72744.0,1.23,-31.23,-31.33,0,*47
1519297300.44,4936,11.5,72740.3,1.23,-31.33,-31.51,0,*41
1519297301.67,4937,11.5,72740.0,1.23,-31.23,-31.33,0,*45
1519297302.9,4938,11.5,72746.0,1.23,-31.23,-31.17,0,*4C
1519297304.11,4939,11.5,72740.8,1.23,-31.17,-31.17,0,*4A
1519297305.31,4940,11.5,72742.0,1.23,-31.33,-31.33,0,*44
1519297306.56,4941,11.5,72742.0,1.23,-31.51,-31.51,0,*45
1519297307.79,4942,11.5,72740.5,1.23,-31.23,-31.33,0,*47
1519297309.06,4943,11.5,72744.0,1.21,-31.57,-31.73,0,*43
1519297310.31,4944,11.5,72740.0,1.17,-31.61,-31.79,0,*4E
1519297311.58,4945,11.5,72740.8,1.17,-31.51,-31.57,0,*40
1519297312.86,4946,11.5,72742.0,1.17,-31.85,-31.95,0,*44
1519297314.08,4947,11.5,72742.3,1.17,-31.33,-31.29,0,*4F
1519297315.36,4948,11.5,72740.3,1.17,-31.11,-31.11,0,*4B
1519297316.64,4949,11.5,72742.8,1.17,-31.11,-31.11,0,*4A
1519297317.92,4950,11.5,72742.8,1.21,-31.23,-31.23,0,*47
1519297319.18,4951,11.5,72744.3,1.21,-31.29,-31.23,0,*4C
1519297320.39,4952,11.5,72740.5,1.21,-31.01,-31.01,0,*45
1519297321.61,4953,11.5,72740.0,1.21,-31.05,-31.01,0,*40
1519297322.83,4954,11.5,72740.3,1.21,-31.17,-31.05,0,*40
1519297324.06,4955,11.5,72742.8,1.21,-31.17,-31.17,0,*42
1519297325.34,4956,11.5,72742.3,1.21,-30.73,-30.89,0,*44
1519297326.61,4957,11.5,72740.0,1.21,-30.89,-30.89,0,*40
1519297327.9,4958,11.5,72744.5,1.17,-31.23,-31.11,0,*4B
1519297329.14,4959,11.5,72742.0,1.21,-30.89,-31.01,0,*4F
1519297330.42,4960,11.5,72740.3,1.21,-30.89,-30.89,0,*44
1519297331.68,4961,11.5,72740.5,1.21,-31.23,-31.17,0,*42
1519297332.95,4962,11.5,72746.3,1.21,-31.57,-31.61,0,*43
1519297334.17,4963,11.5,72740.0,1.17,-31.33,-31.33,0,*42
1519297335.42,4964,11.5,72740.8,1.17,-31.05,-31.11,0,*40
1519297336.67,4965,11.5,72742.0,1.17,-31.05,-31.11,0,*41
1519297337.89,4966,11.5,72738.5,1.21,-31.17,-31.17,0,*42
1519297339.12,4967,11.5,72742.0,1.21,-31.17,-31.17,0,*43
1519297340.34,4968,11.5,72742.0,1.21,-31.29,-31.29,0,*4C
1519297341.59,4969,11.5,72744.0,1.17,-31.33,-31.51,0,*4C
1519297342.82,4970,11.5,72738.0,1.17,-31.29,-31.33,0,*4B
1519297344.07,4971,11.5,72742.8,1.17,-31.29,-31.23,0,*4B
1519297345.32,4972,11.5,72740.8,1.21,-30.89,-31.01,0,*46
1519297346.57,4973,11.5,72744.3,1.17,-31.45,-31.51,0,*46
1519297347.84,4974,11.5,72742.3,1.17,-30.95,-30.95,0,*44
1519297349.12,4975,11.5,72742.0,1.21,-30.73,-30.73,0,*40
1519297350.4,4976,11.5,72740.3,1.17,-30.55,-30.73,0,*42
1519297351.68,4977,11.5,72742.0,1.17,-30.73,-30.77,0,*43
1519297352.9,4978,11.5,72742.8,1.17,-31.05,-31.05,0,*48
1519297354.12,4979,11.5,72742.5,1.21,-31.01,-31.01,0,*4C
1519297355.39,4980,11.5,72742.0,1.21,-30.73,-30.73,0,*4A
1519297356.63,4981,11.5,72740.5,1.21,-30.83,-30.83,0,*4B
1519297357.87,4982,11.5,72742.5,1.17,-31.05,-30.95,0,*45
1519297359.15,4983,11.5,72740.5,1.21,-30.89,-30.89,0,*49
1519297360.4,4984,11.5,72738.0,1.21,-31.01,-30.89,0,*4F
1519297361.65,4985,11.5,72740.0,1.17,-31.11,-31.01,0,*4B
1519297362.89,4986,11.5,72740.8,1.21,-30.83,-30.83,0,*4C
1519297364.14,4987,11.5,72742.3,1.21,-30.67,-30.73,0,*48
1519297365.39,4988,11.5,72742.0,1.21,-30.33,-30.17,0,*44
1519297366.66,4989,11.5,72742.3,1.21,-30.51,-30.51,0,*43
1519297367.92,4990,11.5,72740.8,1.21,-30.39,-30.39,0,*4B
1519297369.18,4991,11.5,72740.3,1.23,-30.17,-30.17,0,*48
1519297370.41,4992,11.5,72740.8,1.23,-29.95,-29.89,0,*46
1519297371.7,4993,11.5,72742.0,1.25,-29.89,-29.89,0,*4C
1519297372.94,4994,11.5,72742.5,1.25,-30.11,-29.89,0,*42
1519297374.14,4995,11.5,72740.8,1.27,-30.11,-30.11,0,*48
1519297375.41,4996,11.5,72742.3,1.25,-30.51,-30.61,0,*4A
1519297376.69,4997,11.5,72738.8,1.25,-30.51,-30.61,0,*4B
1519297377.9,4998,11.5,72738.8,1.27,-30.39,-30.27,0,*4A
1519297379.12,4999,11.5,72738.5,1.27,-30.45,-30.55,0,*45
1519297380.32,5000,11.5,72742.8,1.27,-29.83,-29.83,0,*4C
1519297381.55,5001,11.5,72742.3,1.27,-29.73,-29.67,0,*48
1519297382.75,5002,11.5,72740.8,1.27,-29.95,-29.83,0,*49
1519297384.0,5003,11.5,72742.0,1.29,-29.95,-29.89,0,*4C
1519297385.25,5004,11.5,72744.8,1.29,-29.83,-29.73,0,*49
1519297386.46,5005,11.5,72740.8,1.31,-29.45,-29.45,0,*4E
1519297387.71,5006,11.5,72740.8,1.31,-29.35,-29.35,0,*4D
1519297388.94,5007,11.5,72742.5,1.33,-29.67,-29.61,0,*48
1519297390.2,5008,11.5,72738.8,1.33,-30.05,-30.05,0,*41
1519297391.42,5009,11.5,72738.0,1.35,-29.45,-29.29,0,*4C
1519297392.64,5010,11.5,72740.0,1.37,-29.07,-29.07,0,*4C
1519297393.88,5011,11.5,72740.3,1.37,-28.85,-28.75,0,*42
1519297395.12,5012,11.5,72742.8,1.37,-29.23,-29.17,0,*49
1519297396.37,5013,11.5,72742.8,1.39,-28.91,-28.75,0,*4B
1519297397.63,5014,11.5,72742.3,1.39,-28.75,-28.63,0,*41
1519297398.9,5015,11.5,72740.3,1.43,-29.29,-29.17,0,*47
1519297400.13,5016,11.5,72742.5,1.43,-29.61,-29.45,0,*4F
1519297401.38,5017,11.5,72742.5,1.45,-30.01,-29.89,0,*46
1519297402.61,5018,11.5,72742.0,1.45,-30.17,-30.23,0,*46
1519297403.83,5019,11.5,72738.8,1.47,-30.33,-30.33,0,*42
1519297405.03,5020,11.5,72740.3,1.45,-30.23,-30.23,0,*4A
1519297406.26,5021,11.5,72738.3,1.45,-29.83,-29.73,0,*44
1519297407.51,5022,11.5,72742.0,1.45,-30.05,-30.01,0,*4C
1519297408.76,5023,11.5,72742.3,1.47,-30.11,-30.17,0,*4D
1519297409.98,5024,11.44,72738.3,1.47,-30.11,-30.11,0,*4C
1519297411.24,5025,11.5,72740.0,1.45,-30.17,-30.17,0,*4F
1519297412.49,5026,11.5,72744.0,1.47,-30.67,-30.51,0,*4B
1519297413.72,5027,11.5,72740.8,1.47,-30.27,-30.27,0,*4F
1519297414.92,5028,11.5,72742.8,1.45,-30.33,-30.45,0,*43
1519297416.15,5029,11.5,72740.3,1.47,-29.95,-29.95,0,*41
1519297417.4,5030,11.5,72742.5,1.47,-30.17,-30.33,0,*4F
1519297418.63,5031,11.5,72738.0,1.49,-29.83,-30.01,0,*44
1519297419.83,5032,11.5,72738.8,1.49,-29.95,-29.95,0,*45
1519297421.04,5033,11.5,72742.8,1.49,-29.83,-29.83,0,*44
1519297422.24,5034,11.5,72742.5,1.49,-29.83,-29.83,0,*43
1519297423.44,5035,11.5,72740.5,1.49,-29.83,-29.79,0,*47
1519297424.66,5036,11.5,72742.0,1.49,-29.73,-29.61,0,*42
1519297425.86,5037,11.5,72742.5,1.49,-30.27,-30.45,0,*44
1519297427.14,5038,11.5,72740.5,1.51,-30.73,-30.61,0,*45
1519297428.36,5039,11.5,72740.8,1.49,-30.45,-30.51,0,*4B
1519297429.58,5040,11.5,72736.8,1.51,-29.79,-29.95,0,*4B
1519297430.8,5041,11.5,72742.0,1.51,-30.11,-30.11,0,*48
1519297432.02,5042,11.5,72740.8,1.49,-29.89,-29.95,0,*4F
1519297433.3,5043,11.5,72742.0,1.51,-29.89,-30.05,0,*46
1519297434.55,5044,11.5,72740.0,1.51,-29.57,-29.39,0,*45
1519297435.81,5045,11.5,72740.3,1.53,-29.35,-29.35,0,*4E
1519297437.04,5046,11.5,72740.3,1.55,-29.67,-29.57,0,*48
1519297438.3,5047,11.5,72740.5,1.55,-29.89,-29.83,0,*40
1519297439.49,5048,11.5,72740.8,1.57,-29.79,-29.79,0,*47
1519297440.76,5049,11.5,72742.3,1.55,-30.01,-30.01,0,*44
1519297442.01,5050,11.5,72738.3,1.53,-30.05,-30.17,0,*49
1519297443.22,5051,11.5,72740.0,1.57,-30.83,-30.67,0,*45
1519297444.44,5052,11.5,72742.3,1.57,-30.51,-30.45,0,*49
1519297445.63,5053,11.5,72738.3,1.57,-30.27,-30.45,0,*49
1519297446.88,5054,11.5,72738.8,1.57,-30.51,-30.51,0,*4A
1519297448.14,5055,11.5,72738.8,1.55,-30.55,-30.55,0,*49
1519297449.41,5056,11.44,72738.5,1.55,-30.01,-30.05,0,*4E
1519297450.69,5057,11.5,72740.8,1.55,-30.73,-30.73,0,*4B
1519297451.91,5058,11.5,72744.8,1.57,-30.51,-30.33,0,*42
1519297453.14,5059,11.5,72740.5,1.57,-29.83,-30.01,0,*45
1519297454.34,5060,11.5,72740.0,1.57,-30.27,-30.33,0,*48
1519297455.56,5061,11.5,72742.0,1.57,-31.17,-31.23,0,*4B
1519297456.81,5062,11.5,72742.0,1.57,-30.51,-30.51,0,*4F
1519297458.0,5063,11.5,72740.0,1.57,-29.83,-29.95,0,*49
1519297459.19,5064,11.5,72742.5,1.57,-30.11,-30.11,0,*49
1519297460.38,5065,11.5,72744.5,1.57,-30.11,-30.11,0,*48
1519297461.64,5066,11.5,72742.3,1.59,-30.83,-30.73,0,*4A
1519297462.89,5067,11.5,72740.3,1.57,-31.23,-31.39,0,*41
1519297464.11,5068,11.44,72736.8,1.57,-30.17,-30.23,0,*42
1519297465.33,5069,11.5,72738.8,1.57,-29.23,-29.29,0,*4E
1519297466.52,5070,11.5,72740.3,1.57,-30.27,-30.27,0,*4C
1519297467.78,5071,11.5,72740.3,1.59,-30.17,-30.33,0,*45
1519297469.03,5072,11.5,72742.8,1.59,-30.17,-30.33,0,*46
1519297470.23,5073,11.5,72742.8,1.61,-30.11,-30.23,0,*4B
1519297471.45,5074,11.5,72742.8,1.61,-30.23,-30.39,0,*46
1519297472.69,5075,11.44,72736.3,1.61,-30.61,-30.55,0,*4B
1519297473.96,5076,11.5,72738.0,1.59,-30.51,-30.51,0,*44
1519297475.23,5077,11.5,72742.0,1.59,-30.01,-30.01,0,*45
1519297476.43,5078,11.5,72740.5,1.61,-29.79,-29.79,0,*41
1519297477.66,5079,11.5,72742.5,1.61,-29.39,-29.57,0,*48
1519297478.89,5080,11.5,72740.8,1.65,-29.73,-29.73,0,*42
1519297480.13,5081,11.5,72742.8,1.65,-29.17,-29.17,0,*43
1519297481.37,5082,11.5,72742.8,1.65,-29.01,-29.01,0,*40
1519297482.56,5083,11.5,72738.8,1.65,-30.23,-30.23,0,*41
1519297483.84,5084,11.5,72742.0,1.67,-30.17,-30.17,0,*44
1519297485.07,5085,11.5,72740.0,1.67,-30.39,-30.33,0,*4F
1519297486.34,5086,11.5,72740.3,1.67,-30.01,-30.01,0,*46
1519297487.56,5087,11.5,72742.8,1.67,-29.67,-29.57,0,*44
1519297488.82,5088,11.5,72744.3,1.69,-30.17,-30.17,0,*46
1519297490.04,5089,11.5,72742.3,1.69,-29.89,-29.67,0,*47
1519297491.26,5090,11.5,72744.8,1.71,-29.79,-29.79,0,*46
1519297492.47,5091,11.5,72740.3,1.67,-30.23,-30.23,0,*40
1519297493.67,5092,11.5,72742.8,1.69,-29.67,-29.67,0,*4D
1519297494.92,5093,11.5,72742.8,1.71,-29.51,-29.79,0,*4F
1519297496.14,5094,11.44,72738.3,1.71,-29.95,-30.11,0,*46
1519297497.37,5095,11.5,72740.5,1.71,-29.61,-29.67,0,*45
1519297498.59,5096,11.5,72742.5,1.73,-29.45,-29.61,0,*44
1519297499.81,5097,11.5,72746.3,1.71,-29.67,-29.79,0,*4E
1519297501.04,5098,11.44,72738.0,1.73,-29.57,-29.57,0,*4C
1519297502.31,5099,11.5,72742.8,1.73,-30.61,-30.77,0,*4A
1519297503.53,5100,11.5,72742.8,1.73,-30.11,-30.11,0,*4C
1519297504.78,5101,11.5,72742.3,1.71,-29.45,-29.35,0,*48
1519297506.0,5102,11.5,72740.0,1.73,-29.23,-29.23,0,*4E
1519297507.19,5103,11.5,72740.0,1.75,-29.79,-29.79,0,*49
1519297508.44,5104,11.5,72740.5,1.75,-29.73,-29.73,0,*4E
1519297509.72,5105,11.5,72740.8,1.77,-29.51,-29.51,0,*4D
1519297511.0,5106,11.5,72738.5,1.77,-29.39,-29.39,0,*4E
1519297512.26,5107,11.5,72740.0,1.77,-29.67,-29.73,0,*4A
1519297513.46,5108,11.5,72740.5,1.79,-29.67,-29.67,0,*4E
1519297514.71,5109,11.5,72742.3,1.79,-29.73,-29.89,0,*4A
1519297515.97,5110,11.44,72740.0,1.81,-30.27,-30.17,0,*43
1519297517.19,5111,11.5,72742.3,1.81,-29.67,-29.67,0,*41
1519297518.39,5112,11.44,72736.5,1.83,-30.23,-30.33,0,*41
1519297519.59,5113,11.5,72738.8,1.83,-30.27,-30.27,0,*41
1519297520.81,5114,11.5,72742.0,1.81,-29.83,-29.95,0,*43
1519297522.03,5115,11.5,72742.0,1.81,-29.67,-29.83,0,*4F
1519297523.25,5116,11.5,72742.3,1.81,-29.95,-29.95,0,*46
1519297524.47,5117,11.5,72740.3,1.85,-29.79,-29.79,0,*43
1519297525.69,5118,11.5,72740.0,1.85,-29.45,-29.57,0,*4F
1519297526.91,5119,11.5,72740.8,1.83,-29.29,-29.23,0,*41
1519297528.17,5120,11.5,72742.0,1.85,-29.29,-29.39,0,*46
1519297529.4,5121,11.5,72742.0,1.83,-29.39,-29.61,0,*4D
1519297530.67,5122,11.5,72740.0,1.85,-29.39,-29.39,0,*45
1519297531.91,5123,11.5,72740.0,1.91,-29.51,-29.57,0,*47
1519297533.13,5124,11.5,72740.0,1.89,-29.57,-29.67,0,*4C
1519297534.38,5125,11.5,72740.8,1.91,-30.17,-30.01,0,*40
1519297535.65,5126,11.5,72742.5,1.93,-29.29,-29.17,0,*4B
1519297536.92,5127,11.5,72742.5,1.93,-29.17,-29.13,0,*43
1519297538.19,5128,11.5,72742.8,1.93,-29.35,-29.29,0,*45
1519297539.43,5129,11.5,72740.5,1.95,-29.13,-29.01,0,*4C
1519297540.67,5130,11.44,72738.5,1.95,-29.17,-29.29,0,*4A
1519297541.9,5131,11.44,72740.0,1.95,-29.35,-29.45,0,*41
1519297543.16,5132,11.5,72740.5,1.95,-29.51,-29.51,0,*45
1519297544.42,5133,11.5,72742.5,1.97,-29.29,-29.29,0,*46
1519297545.67,5134,11.5,72740.8,1.99,-29.51,-29.51,0,*4F
1519297546.9,5135,11.5,72740.8,1.99,-29.23,-29.35,0,*49
1519297548.15,5136,11.5,72740.5,1.99,-29.35,-29.35,0,*4D
1519297549.37,5137,11.5,72740.3,2.01,-29.07,-29.07,0,*4E
1519297550.63,5138,11.5,72742.5,2.01,-29.51,-29.57,0,*47
1519297551.83,5139,11.5,72740.0,2.03,-29.67,-29.67,0,*42
1519297553.04,5140,11.5,72742.8,2.03,-29.45,-29.45,0,*4C
1519297554.29,5141,11.5,72742.8,2.03,-29.29,-29.35,0,*40
1519297555.54,5142,11.5,72742.0,2.05,-29.51,-29.45,0,*4D
1519297556.78,5143,11.5,72740.5,2.07,-28.79,-28.75,0,*47
1519297557.97,5144,11.5,72742.3,2.07,-28.97,-29.07,0,*44
1519297559.22,5145,11.44,72740.0,2.07,-29.01,-28.91,0,*45
1519297560.45,5146,11.5,72744.3,2.07,-29.13,-29.29,0,*47
1519297561.67,5147,11.5,72740.3,2.11,-29.07,-29.17,0,*49
1519297562.92,5148,11.5,72742.5,2.13,-29.89,-29.95,0,*48
1519297564.17,5149,11.5,72742.3,2.13,-29.95,-30.05,0,*45
1519297565.39,5150,11.5,72742.8,2.11,-30.39,-30.45,0,*45
1519297566.61,5151,11.5,72740.0,2.13,-30.23,-30.27,0,*49
1519297567.83,5152,11.5,72740.5,2.13,-29.95,-29.95,0,*4E
1519297569.11,5153,11.5,72740.3,2.13,-30.61,-30.61,0,*4F
1519297570.35,5154,11.5,72742.8,2.11,-30.39,-30.55,0,*40
1519297571.6,5155,11.5,72742.0,2.11,-29.89,-29.73,0,*4E
1519297572.83,5156,11.5,72740.8,2.11,-29.95,-30.05,0,*49
1519297574.06,5157,11.5,72744.5,2.13,-29.67,-29.57,0,*48
1519297575.33,5158,11.5,72744.5,2.13,-29.73,-29.73,0,*44
1519297576.55,5159,11.5,72740.8,2.13,-29.95,-29.95,0,*45
1519297577.8,5160,11.5,72740.8,2.15,-29.89,-30.01,0,*41
1519297579.02,5161,11.5,72742.0,2.15,-30.23,-30.51,0,*4D
1519297580.22,5162,11.5,72740.3,2.15,-30.23,-30.33,0,*4A
1519297581.47,5163,11.5,72742.0,2.15,-30.95,-31.11,0,*47
1519297582.7,5164,11.44,72740.0,2.15,-30.55,-30.55,0,*4D
1519297583.93,5165,11.5,72742.3,2.13,-30.27,-30.45,0,*4E
1519297585.15,5166,11.5,72742.3,2.15,-30.05,-30.23,0,*4B
1519297586.34,5167,11.5,72740.5,2.15,-30.23,-30.33,0,*4F
1519297587.55,5168,11.5,72740.0,2.15,-29.67,-29.67,0,*41
1519297588.75,5169,11.5,72742.8,2.15,-29.61,-29.67,0,*46
1519297589.97,5170,11.5,72740.3,2.17,-29.61,-29.67,0,*4C
1519297591.2,5171,11.5,72742.0,2.17,-30.33,-30.33,0,*4B
1519297592.47,5172,11.5,72738.5,2.17,-30.01,-30.17,0,*4F
1519297593.76,5173,11.5,72740.3,2.17,-29.51,-29.51,0,*49
1519297594.98,5174,11.5,72740.0,2.19,-29.73,-29.83,0,*4F
1519297596.23,5175,11.5,72742.0,2.21,-29.73,-29.67,0,*4F
1519297597.44,5176,11.5,72742.5,2.19,-29.13,-29.23,0,*41
1519297598.68,5177,11.5,72740.5,2.21,-29.57,-29.57,0,*48
1519297599.89,5178,11.5,72740.5,2.19,-29.13,-29.23,0,*4F
1519297601.14,5179,11.44,72740.0,2.25,-28.85,-29.01,0,*4F
1519297602.41,5180,11.5,72740.3,2.25,-29.73,-29.73,0,*44
1519297603.63,5181,11.5,72740.5,2.23,-29.67,-29.73,0,*46
1519297604.91,5182,11.5,72742.5,2.25,-29.29,-29.35,0,*4B
1519297606.16,5183,11.44,72736.8,2.25,-29.35,-29.45,0,*40
1519297607.43,5184,11.5,72738.8,2.25,-29.13,-29.17,0,*44
1519297608.67,5185,11.5,72740.5,2.29,-29.07,-29.13,0,*48
1519297609.94,5186,11.5,72738.8,2.29,-28.91,-28.91,0,*4E
1519297611.17,5187,11.5,72740.3,2.29,-29.67,-29.67,0,*4F
1519297612.44,5188,11.44,72736.5,2.33,-29.39,-29.29,0,*4A
1519297613.71,5189,11.44,72738.0,2.33,-29.13,-29.39,0,*42
1519297614.96,5190,11.44,72738.0,2.33,-29.45,-29.39,0,*49
1519297616.18,5191,11.5,72740.0,2.35,-28.91,-29.07,0,*4B
1519297617.43,5192,11.44,72736.0,2.35,-29.35,-29.51,0,*44
1519297618.63,5193,11.5,72742.5,2.35,-30.11,-30.11,0,*47
1519297619.88,5194,11.5,72742.0,2.37,-29.35,-29.39,0,*4E
1519297621.13,5195,11.5,72740.0,2.37,-29.39,-29.39,0,*43
1519297622.33,5196,11.5,72742.0,2.37,-29.79,-29.95,0,*42
1519297623.56,5197,11.5,72740.5,2.37,-29.79,-29.89,0,*4E
1519297624.77,5198,11.5,72742.5,2.37,-30.27,-30.45,0,*4A
1519297625.99,5199,11.5,72740.5,2.37,-30.45,-30.55,0,*4E
1519297627.24,5200,11.5,72738.8,2.37,-29.89,-30.05,0,*40
1519297628.49,5201,11.5,72742.8,2.39,-29.45,-29.51,0,*46
1519297629.78,5202,11.5,72740.0,2.39,-29.35,-29.35,0,*40
1519297631.03,5203,11.5,72744.0,2.41,-29.39,-29.39,0,*4E
1519297632.3,5204,11.5,72740.5,2.43,-29.13,-29.13,0,*4B
1519297633.55,5205,11.5,72740.3,2.43,-29.79,-30.01,0,*4D
1519297634.79,5206,11.5,72740.3,2.41,-30.27,-30.17,0,*48
1519297636.07,5207,11.5,72740.5,2.43,-29.39,-29.39,0,*48
1519297637.29,5208,11.5,72742.3,2.43,-29.07,-29.07,0,*47
1519297638.51,5209,11.5,72740.5,2.43,-28.97,-29.07,0,*4E
1519297639.78,5210,11.5,72742.3,2.43,-29.13,-29.13,0,*4E
1519297641.02,5211,11.44,72738.3,2.45,-29.01,-29.17,0,*4E
1519297642.24,5212,11.44,72738.0,2.45,-29.61,-29.73,0,*49
1519297643.49,5213,11.5,72740.0,2.45,-30.05,-30.05,0,*4B
1519297644.71,5214,11.5,72742.8,2.47,-30.27,-30.45,0,*4A
1519297645.93,5215,11.44,72738.0,2.47,-29.57,-29.79,0,*43
1519297647.18,5216,11.44,72736.8,2.45,-29.89,-30.05,0,*42
1519297648.43,5217,11.5,72740.3,2.47,-29.57,-29.73,0,*4B
1519297649.7,5218,11.5,72742.3,2.51,-29.29,-29.51,0,*4A
1519297650.92,5219,11.5,72740.5,2.49,-30.23,-30.39,0,*46
1519297652.14,5220,11.44,72738.3,2.49,-29.73,-29.83,0,*48
1519297653.39,5221,11.44,72738.0,2.49,-29.29,-29.39,0,*47
1519297654.66,5222,11.5,72740.5,2.51,-30.01,-30.01,0,*4C
1519297655.88,5223,11.5,72740.0,2.49,-29.57,-29.73,0,*42
1519297657.13,5224,11.5,72740.5,2.51,-29.73,-29.67,0,*4F
1519297658.4,5225,11.5,72738.8,2.51,-29.29,-29.35,0,*46
1519297659.68,5226,11.5,72742.3,2.51,-29.01,-29.01,0,*48
1519297660.87,5227,11.44,72738.8,2.53,-30.11,-30.33,0,*4B
1519297662.11,5228,11.5,72742.0,2.53,-30.39,-30.55,0,*4E
1519297663.37,5229,11.5,72740.5,2.53,-29.51,-29.51,0,*45
1519297664.58,5230,11.5,72740.5,2.57,-28.69,-28.75,0,*44
1519297665.8,5231,11.44,72738.5,2.57,-28.69,-28.75,0,*45
1519297666.99,5232,11.5,72742.0,2.57,-29.07,-29.07,0,*4B
1519297668.23,5233,11.5,72742.0,2.61,-29.17,-29.17,0,*4F
1519297669.47,5234,11.5,72742.8,2.61,-29.01,-29.01,0,*48
1519297670.72,5235,11.44,72738.3,2.61,-29.01,-29.01,0,*49
1519297671.99,5236,11.5,72738.3,2.63,-29.35,-29.39,0,*44
1519297673.2,5237,11.5,72742.8,2.63,-29.23,-29.23,0,*49
1519297674.39,5238,11.44,72738.5,2.65,-28.97,-29.07,0,*48
1519297675.61,5239,11.5,72738.3,2.65,-28.91,-28.97,0,*47
1519297676.84,5240,11.44,72736.0,2.65,-29.35,-29.45,0,*48
1519297678.07,5241,11.5,72740.5,2.67,-29.45,-29.61,0,*4A
1519297679.34,5242,11.5,72742.0,2.67,-29.39,-29.39,0,*4F
1519297680.58,5243,11.5,72742.0,2.67,-29.23,-29.29,0,*44
1519297681.82,5244,11.5,72742.3,2.69,-29.07,-29.29,0,*4B
1519297683.07,5245,11.44,72740.0,2.69,-29.29,-29.45,0,*4C
1519297684.33,5246,11.44,72738.8,2.69,-29.39,-29.61,0,*48
1519297685.54,5247,11.5,72742.0,2.71,-30.05,-30.27,0,*4D
1519297686.77,5248,11.5,72740.5,2.73,-30.11,-30.45,0,*41
1519297688.0,5249,11.5,72744.3,2.71,-29.83,-30.05,0,*45
1519297689.21,5250,11.5,72742.8,2.71,-30.05,-30.11,0,*4E
1519297690.47,5251,11.5,72740.0,2.71,-29.89,-30.01,0,*42
1519297691.7,5252,11.5,72742.3,2.71,-30.27,-30.61,0,*4B
1519297692.95,5253,11.5,72742.0,2.71,-30.77,-30.95,0,*44
1519297694.18,5254,11.5,72740.3,2.71,-29.51,-29.67,0,*4A
1519297695.41,5255,11.5,72742.0,2.71,-29.83,-30.01,0,*4C
1519297696.63,5256,11.5,72740.3,2.71,-30.01,-30.27,0,*49
1519297697.84,5257,11.5,72738.8,2.71,-29.17,-29.23,0,*4B
1519297699.1,5258,11.5,72742.3,2.71,-29.35,-29.51,0,*41
1519297700.35,5259,11.44,72738.3,2.73,-30.05,-30.11,0,*45
1519297701.55,5260,11.5,72742.3,2.75,-29.79,-29.83,0,*49
1519297702.79,5261,11.44,72736.3,2.75,-29.17,-29.29,0,*40
1519297704.05,5262,11.44,72738.3,2.75,-28.91,-29.17,0,*41
1519297705.28,5263,11.5,72740.8,2.79,-29.39,-29.57,0,*4B
1519297706.5,5264,11.5,72742.8,2.79,-29.61,-29.73,0,*47
1519297707.73,5265,11.5,72740.3,2.79,-29.39,-29.61,0,*48
1519297708.96,5266,11.5,72740.5,2.79,-30.17,-30.45,0,*41
1519297710.19,5267,11.44,72738.0,2.79,-30.61,-30.83,0,*4B
1519297711.44,5268,11.5,72742.0,2.81,-29.73,-29.79,0,*45
1519297712.67,5269,11.5,72742.8,2.81,-29.23,-29.57,0,*4D
1519297713.93,5270,11.5,72740.5,2.81,-29.95,-30.01,0,*43
1519297715.21,5271,11.44,72738.5,2.81,-30.73,-30.89,0,*42
1519297716.49,5272,11.5,72740.5,2.81,-30.01,-30.17,0,*43
1519297717.75,5273,11.5,72742.5,2.83,-29.39,-29.51,0,*49
1519297718.98,5274,11.44,72740.0,2.83,-29.67,-29.89,0,*40
1519297720.2,5275,11.5,72740.0,2.83,-29.89,-30.11,0,*48
1519297721.42,5276,11.5,72740.5,2.83,-30.11,-30.39,0,*48